Miscellaneous Local Product
Issued by NWS Hastings, NE

Home | Current Version | Previous Version | Graphics & Text | Print | Product List | Glossary On
Versions: 1 2 3 4 5 6 7 8 9 10 11 12 13 14 15 16 17 18 19 20 21 22 23 24 25 26 27 28 29 30 31 32 33 34 35 36 37 38 39 40 41 42 43 44 45 46 47 48 49 50
000
AXUS43 KGID 230102
MISGRI

GID CWA HOURLY WEATHER ROUNDUP
NATIONAL WEATHER SERVICE HASTINGS NE
800 PM CDT FRI MAY 22 2015

NOTE: "FAIR" INDICATES FEW OR NO CLOUDS BELOW 12,000 FEET WITH NO
SIGNIFICANT WEATHER AND/OR OBSTRUCTIONS TO VISIBILITY.

...SOUTH CENTRAL NEBRASKA...

CITY           SKY/WX    TMP DP  RH WIND       PRES   REMARKS
GRAND ISLAND   LGT RAIN  54  48  80 SE8       30.16S
HASTINGS       LGT RAIN  53  50  89 SE9       30.14F FOG
KEARNEY        CLOUDY    52  48  87 E13       30.14S
ORD            LGT RAIN  50  46  86 SE7       30.16R FOG
YORK           CLOUDY    57  46  67 SE8       30.16S
AURORA         LGT RAIN  56  46  69 SE10      30.16S
LEXINGTON      DRIZZLE   51  50  96 E10G18    30.11F
HOLDREGE       CLOUDY    51  50  95 SE14      30.11F
HEBRON         CLOUDY    59  47  63 SE6       30.15S

...NEBRASKA PANHANDLE...

CITY           SKY/WX    TMP DP  RH WIND       PRES   REMARKS
CHADRON        CLOUDY    50  44  80 SE13      30.07S
ALLIANCE       CLOUDY    47  44  90 SE17      30.06S
SCOTTSBLUFF    CLOUDY    48  46  93 SE18      30.04S
SIDNEY         CLOUDY    46  44  93 SE16G23   30.05S FOG

...WESTERN AND NORTH CENTRAL NEBRASKA...

CITY           SKY/WX    TMP DP  RH WIND       PRES   REMARKS
VALENTINE      CLOUDY    51  44  77 SE15      30.13F
AINSWORTH      CLOUDY    50  45  81 SE12      30.15S
ONEILL         DRIZZLE   52  48  87 SE6       30.17S
BROKEN BOW     LGT RAIN  49  47  93 E12       30.13F FOG
IMPERIAL       LGT RAIN  49  47  93 E16       30.03F
NORTH PLATTE   LGT RAIN  48  46  93 E16       30.09F
MCCOOK         CLOUDY    51  50  96 E13       30.07S FOG

...EASTERN NEBRASKA...

CITY           SKY/WX    TMP DP  RH WIND       PRES   REMARKS
NORFOLK        CLOUDY    55  48  77 E6        30.17F
SO SIOUX CITY  LGT RAIN  59  46  62 S9        30.19S
TEKAMAH        CLOUDY    61  50  67 E8        30.18S
COLUMBUS       CLOUDY    59  41  51 SE7       30.20S
ALBION         DRIZZLE   54  49  85 E6        30.16F
OMAHA EPPLEY   CLOUDY    65  43  44 SE8       30.17F
OFFUTT AFB     CLOUDY    64  48  56 SE6       30.17S
MILLARD        CLOUDY    65  46  49 NE7       30.17F
LINCOLN        CLOUDY    62  45  53 SE9       30.18S
NEBRASKA CITY  CLOUDY    62  42  49 SE7       30.19R
BEATRICE       CLOUDY    60  44  54 SE10      30.16S
FALLS CITY     CLOUDY    63  46  54 SE7       30.18S

...NORTHERN KANSAS...

CITY           SKY/WX    TMP DP  RH WIND       PRES   REMARKS
GOODLAND       CLOUDY    54  52  93 SE15G24   30.00S
HILL CITY      CLOUDY    54  53  97 E10       30.08S FOG
NORTON         CLOUDY    54  50  87 E13       30.07F FOG
PHILLIPSBURG   LGT RAIN  55  55 100 E10       30.10F
SMITH CENTER   CLOUDY    54  52  94 SE9       30.13S FOG
HAYS           CLOUDY    55  48  76 SE15      30.09S
RUSSELL        CLOUDY    56  55  97 S12       30.09S FOG
CONCORDIA      CLOUDY    58  51  78 SE7       30.14S
SALINA         CLOUDY    60  53  77 S10       30.14R
TOPEKA         CLOUDY    62  48  60 E8        30.18F



USA.gov is the U.S. government's official web portal to all federal, state and local government web resources and services.